Flagstaff, AZ

9:04 PM MST on June 28, 2017 (GMT -0700)
Flagstaff Pulliam

Weather History for KFLG - December, 2012

Change the Weather History Date:

Wednesday, December 19, 2012

  Actual Average Record
Temperature  
Mean Temperature 19 °F 29 °F  
Max Temperature 30 °F 42 °F 62 °F (1958)
Min Temperature 7 °F 16 °F -14 °F (1924)
Degree Days  
Heating Degree Days 46 36  
Month to date heating degree days 605 665  
Since 1 July heating degree days 2048 2397  
Cooling Degree Days 0 0  
Month to date cooling degree days 0 0  
Year to date cooling degree days 164 117  
Moisture  
Dew Point 11 °F    
Average Humidity 61    
Maximum Humidity 92    
Minimum Humidity 29    
Precipitation  
Precipitation 0.06 in 0.06 in 2.32 in (1967)
Month to date precipitation 1.80 1.09  
Year to date precipitation 14.61 21.08  
Snow  
Snow 1.20 in 0.60 in 22.70 in (1967)
Month to date snowfall 23.1 9.8  
Since 1 July snowfall 24.2 22.0  
Snow Depth 13.00 in    
Sea Level Pressure  
Sea Level Pressure 29.91 in    
Wind  
Wind Speed 10 mph (West)    
Max Wind Speed 21 mph    
Max Gust Speed 35 mph    
Visibility 8 miles    
Events Snow    
T = Trace of Precipitation, MM = Missing Value Source: NWS Daily Summary

Daily Weather History Graph

Daily Weather History Graph

Search for Another Location

Airport or City:

Trip Planner

Search our weather history database for the weather conditions in past years. The results will help you decide how hot, cold, wet, or windy it might be!

Date:

Astronomy

Dec. 19, 2012 Rise Set
Actual Time 7:30 AM MST 5:17 PM MST
Civil Twilight 7:02 AM MST 5:46 PM MST
Nautical Twilight 6:30 AM MST 6:17 PM MST
Astronomical Twilight 5:59 AM MST 6:48 PM MST
Moon 11:56 AM MST (12/19) No Moon Set
Length of Visible Light 10h 43m
Length of Day
9h 47m
Waxing Crescent, 45% of the Moon is Illuminated
Dec 19
Waxing Crescent
Dec 19
First Quarter
Dec 28
Full
Jan 4
Last Quarter
Jan 11
New

Hourly Weather History & Observations

Time (MST) Temp. Windchill Dew Point Humidity Pressure Visibility Wind Dir Wind Speed Gust Speed Precip Events Conditions
12:31 AM 28.4 °F 15.8 °F 24.8 °F 86% 29.62 in 0.8 mi WSW 18.4 mph 34.5 mph 0.02 in Snow Light Snow
12:57 AM 26.1 °F 14.0 °F 24.1 °F 92% 29.59 in 0.8 mi WSW 15.0 mph 31.1 mph 0.03 in Snow Light Snow
1:19 AM 26.6 °F 15.2 °F 23.0 °F 86% 29.62 in 1.5 mi WSW 13.8 mph 24.2 mph 0.01 in Snow Light Snow
1:23 AM 26.6 °F 14.7 °F 21.2 °F 80% 29.62 in 3.0 mi West 15.0 mph 24.2 mph 0.01 in Snow Light Snow
1:44 AM 26.6 °F 14.7 °F 21.2 °F 80% 29.64 in 9.0 mi WSW 15.0 mph 27.6 mph 0.01 in Snow Light Snow
1:57 AM 25.0 °F 12.2 °F 19.9 °F 81% 29.62 in 4.0 mi WSW 16.1 mph 25.3 mph 0.01 in Snow Light Snow
2:05 AM 24.8 °F 11.5 °F 19.4 °F 80% 29.65 in 7.0 mi WSW 17.3 mph 25.3 mph 0.01 in Snow Light Snow
2:57 AM 24.1 °F 11.0 °F 16.0 °F 71% 29.62 in 10.0 mi WSW 16.1 mph 25.3 mph 0.01 in   Overcast
3:57 AM 21.0 °F 6.6 °F 16.0 °F 81% 29.62 in 10.0 mi WSW 17.3 mph 25.3 mph N/A   Partly Cloudy
4:21 AM 21.2 °F 8.3 °F 17.6 °F 86% 29.64 in 10.0 mi WSW 13.8 mph 26.5 mph N/A   Mostly Cloudy
4:57 AM 19.9 °F 7.3 °F 15.1 °F 81% 29.66 in 6.0 mi WSW 12.7 mph 23.0 mph N/A   Haze
5:27 AM 19.4 °F 8.6 °F 15.8 °F 86% 29.69 in 10.0 mi WSW 9.2 mph - N/A   Mostly Cloudy
5:57 AM 21.0 °F 9.9 °F 16.0 °F 81% 29.71 in 10.0 mi WSW 10.4 mph 17.3 mph N/A   Overcast
6:17 AM 21.2 °F 11.7 °F 17.6 °F 86% 29.73 in 5.0 mi West 8.1 mph 16.1 mph 0.00 in Snow Light Snow
6:28 AM 21.2 °F 10.9 °F 17.6 °F 86% 29.74 in 1.8 mi West 9.2 mph - 0.00 in Snow Light Snow
6:57 AM 21.0 °F 11.4 °F 18.0 °F 88% 29.76 in 1.0 mi West 8.1 mph - 0.01 in Snow Light Snow
7:11 AM 19.4 °F 8.6 °F 15.8 °F 86% 29.79 in 2.0 mi WNW 9.2 mph 24.2 mph 0.00 in Snow Light Snow
7:25 AM 19.4 °F 9.5 °F 15.8 °F 86% 29.80 in 4.0 mi WNW 8.1 mph 21.9 mph 0.00 in Snow Light Snow
7:57 AM 18.0 °F 8.7 °F 10.9 °F 74% 29.85 in 7.0 mi West 6.9 mph 21.9 mph 0.00 in Snow Light Snow
8:57 AM 17.1 °F 5.8 °F 10.0 °F 74% 29.94 in 10.0 mi WNW 9.2 mph - 0.00 in   Mostly Cloudy
9:57 AM 19.9 °F 7.9 °F 12.0 °F 71% 29.98 in 8.0 mi NW 11.5 mph 19.6 mph 0.00 in Snow Light Snow
10:17 AM 19.4 °F 10.4 °F 10.4 °F 68% 29.98 in 10.0 mi Variable 6.9 mph - 0.00 in   Scattered Clouds
10:57 AM 21.9 °F 13.4 °F 8.1 °F 55% 30.02 in 10.0 mi NNW 6.9 mph 17.3 mph 0.00 in   Scattered Clouds
11:57 AM 26.1 °F 20.5 °F 6.1 °F 43% 30.03 in 10.0 mi Variable 4.6 mph - N/A   Clear
12:57 PM 26.1 °F 17.6 °F -2.0 °F 30% 30.05 in 10.0 mi NW 8.1 mph 20.7 mph N/A   Clear
1:57 PM 26.1 °F 13.6 °F 1.0 °F 34% 30.05 in 10.0 mi NE 16.1 mph - N/A   Clear
2:57 PM 26.1 °F 15.0 °F 3.9 °F 39% 30.08 in 10.0 mi East 12.7 mph 17.3 mph N/A   Clear
3:57 PM 24.1 °F 16.0 °F -0.0 °F 35% 30.15 in 10.0 mi East 6.9 mph - N/A   Clear
4:57 PM 21.9 °F 11.7 °F -0.0 °F 38% 30.20 in 10.0 mi ENE 9.2 mph - N/A   Clear
5:57 PM 19.0 °F 10.0 °F 1.0 °F 46% 30.23 in 10.0 mi East 6.9 mph - N/A   Clear
6:57 PM 17.1 °F 6.6 °F 1.9 °F 52% 30.28 in 10.0 mi ENE 8.1 mph - N/A   Clear
7:57 PM 15.1 °F 2.5 °F 1.0 °F 54% 30.32 in 10.0 mi ENE 10.4 mph - N/A   Clear
8:57 PM 14.0 °F 3.9 °F 1.0 °F 56% 30.37 in 10.0 mi ENE 6.9 mph - N/A   Clear
9:57 PM 12.0 °F -0.4 °F -0.0 °F 59% 30.40 in 10.0 mi ENE 9.2 mph - N/A   Clear
10:57 PM 12.9 °F 3.8 °F 1.0 °F 59% 30.38 in 10.0 mi East 5.8 mph - N/A   Clear
11:57 PM 7.0 °F - 1.0 °F 77% 30.43 in 10.0 mi Calm Calm - N/A   Clear